When you browse on this site, cookies collect data to enhance your experience and personalize the content and advertising you see.
Visit our Privacy Policy to learn more. By continuing to use the site, you agree to this use of cookies and data.
EN

Hourly Weather Stretford

Today, 11 July, Saturday

Time Temperature Precipitation Wind Pressure Humidity
00:00 +11°C° 0 mm 4 mps 765 mmHg 81%
01:00 +11°C° 0 mm 4 mps 765 mmHg 82%
02:00 +11°C° 0 mm 3 mps 765 mmHg 83%
03:00 +10°C° 0 mm 3 mps 765 mmHg 84%
04:00 +11°C° 0 mm 4 mps 765 mmHg 83%
05:00 +11°C° 0 mm 4 mps 765 mmHg 83%
06:00 +12°C° 0 mm 4 mps 765 mmHg 82%
07:00 +13°C° 0.1 mm 4 mps 766 mmHg 78%
08:00 +14°C° 0.1 mm 5 mps 766 mmHg 74%
09:00 +15°C° 0.1 mm 5 mps 766 mmHg 70%
10:00 +15°C° 0.1 mm 5 mps 766 mmHg 68%
11:00 +16°C° 0.1 mm 5 mps 767 mmHg 66%
12:00 +16°C° 0.1 mm 5 mps 767 mmHg 64%
13:00 +17°C° 0 mm 5 mps 767 mmHg 63%
14:00 +17°C° 0 mm 5 mps 767 mmHg 61%
15:00 +17°C° 0 mm 5 mps 767 mmHg 60%
16:00 +17°C° 0 mm 5 mps 767 mmHg 62%
17:00 +17°C° 0 mm 4 mps 767 mmHg 64%
18:00 +17°C° 0 mm 4 mps 767 mmHg 66%
19:00 +14°C° 0 mm 3 mps 767 mmHg 70%
20:00 +13°C° 0 mm 3 mps 768 mmHg 74%
21:00 +13°C° 0 mm 2 mps 768 mmHg 79%
22:00 +12°C° 0 mm 2 mps 768 mmHg 81%
23:00 +12°C° 0 mm 1 mps 768 mmHg 84%

Tomorrow, 12 July, Sunday

Time Temperature Precipitation Wind Pressure Humidity
00:00 +12°C° 0 mm 1 mps 768 mmHg 87%
01:00 +11°C° 0 mm 1 mps 768 mmHg 88%
02:00 +11°C° 0 mm 1 mps 768 mmHg 88%
03:00 +11°C° 0 mm 1 mps 768 mmHg 89%
04:00 +12°C° 0 mm 1 mps 768 mmHg 88%
05:00 +12°C° 0 mm 1 mps 768 mmHg 86%
06:00 +13°C° 0 mm 1 mps 768 mmHg 85%
07:00 +14°C° 0 mm 1 mps 768 mmHg 79%
08:00 +15°C° 0 mm 1 mps 768 mmHg 74%
09:00 +17°C° 0 mm 2 mps 768 mmHg 68%
10:00 +18°C° 0 mm 2 mps 768 mmHg 63%
11:00 +19°C° 0 mm 2 mps 768 mmHg 59%
12:00 +20°C° 0 mm 2 mps 768 mmHg 54%
13:00 +20°C° 0 mm 2 mps 768 mmHg 54%
14:00 +20°C° 0 mm 2 mps 768 mmHg 54%
15:00 +21°C° 0 mm 2 mps 767 mmHg 55%
16:00 +20°C° 0 mm 2 mps 767 mmHg 58%
17:00 +19°C° 0 mm 2 mps 767 mmHg 62%
18:00 +19°C° 0 mm 2 mps 767 mmHg 66%
19:00 +17°C° 0 mm 2 mps 767 mmHg 70%
20:00 +16°C° 0 mm 1 mps 767 mmHg 74%
21:00 +15°C° 0 mm 1 mps 767 mmHg 78%
22:00 +14°C° 0 mm 1 mps 767 mmHg 79%
23:00 +13°C° 0 mm 0 mps 767 mmHg 80%

Day after tomorrow, 13 July, Monday

Time Temperature Precipitation Wind Pressure Humidity
00:00 +12°C° 0 mm 0 mps 767 mmHg 81%
01:00 +13°C° 0 mm 1 mps 766 mmHg 81%
02:00 +13°C° 0 mm 1 mps 766 mmHg 81%
03:00 +13°C° 0 mm 1 mps 766 mmHg 82%
04:00 +13°C° 0 mm 1 mps 765 mmHg 79%
05:00 +13°C° 0 mm 2 mps 765 mmHg 77%
06:00 +13°C° 0 mm 2 mps 765 mmHg 75%
07:00 +14°C° 0 mm 2 mps 765 mmHg 73%
08:00 +14°C° 0 mm 2 mps 765 mmHg 71%
09:00 +15°C° 0 mm 2 mps 764 mmHg 70%
10:00 +16°C° 0 mm 2 mps 764 mmHg 71%
11:00 +16°C° 0 mm 2 mps 764 mmHg 73%
12:00 +17°C° 0 mm 3 mps 763 mmHg 74%
13:00 +18°C° 0 mm 3 mps 763 mmHg 73%
14:00 +19°C° 0 mm 3 mps 763 mmHg 72%
15:00 +20°C° 0 mm 3 mps 762 mmHg 71%
16:00 +19°C° 0.2 mm 3 mps 762 mmHg 75%
17:00 +18°C° 0.2 mm 3 mps 762 mmHg 79%
18:00 +17°C° 0.2 mm 2 mps 761 mmHg 83%
19:00 +17°C° 0 mm 2 mps 761 mmHg 84%
20:00 +17°C° 0 mm 2 mps 761 mmHg 85%
21:00 +16°C° 0 mm 3 mps 761 mmHg 86%
22:00 +16°C° 0.1 mm 2 mps 761 mmHg 87%
23:00 +16°C° 0.1 mm 2 mps 761 mmHg 88%

14 July, Tuesday

Time Temperature Precipitation Wind Pressure Humidity
00:00 +15°C° 0.1 mm 2 mps 760 mmHg 89%
01:00 +15°C° 0.1 mm 2 mps 760 mmHg 91%
02:00 +15°C° 0.1 mm 2 mps 760 mmHg 92%
03:00 +15°C° 0.1 mm 2 mps 760 mmHg 93%
04:00 +15°C° 0 mm 2 mps 759 mmHg 92%
05:00 +15°C° 0 mm 2 mps 759 mmHg 92%
06:00 +16°C° 0 mm 2 mps 759 mmHg 91%
07:00 +16°C° 0.2 mm 3 mps 759 mmHg 87%
08:00 +17°C° 0.2 mm 3 mps 759 mmHg 82%
09:00 +18°C° 0.2 mm 4 mps 759 mmHg 78%
10:00 +17°C° 0.1 mm 5 mps 759 mmHg 75%
11:00 +17°C° 0.1 mm 5 mps 759 mmHg 71%
12:00 +19°C° 0.1 mm 6 mps 759 mmHg 68%
13:00 +16°C° 0 mm 5 mps 759 mmHg 72%
14:00 +15°C° 0 mm 5 mps 758 mmHg 75%
15:00 +14°C° 0 mm 5 mps 758 mmHg 79%
16:00 +14°C° 0.1 mm 5 mps 758 mmHg 80%
17:00 +14°C° 0.1 mm 5 mps 758 mmHg 80%
18:00 +14°C° 0.1 mm 5 mps 758 mmHg 81%
19:00 +14°C° 0 mm 5 mps 757 mmHg 81%
20:00 +14°C° 0 mm 5 mps 757 mmHg 82%
21:00 +14°C° 0 mm 5 mps 757 mmHg 82%
22:00 +14°C° 0.1 mm 5 mps 757 mmHg 83%
23:00 +14°C° 0.1 mm 5 mps 757 mmHg 84%

15 July, Wednesday

Time Temperature Precipitation Wind Pressure Humidity
00:00 +14°C° 0.1 mm 5 mps 756 mmHg 86%
01:00 +14°C° 0.2 mm 5 mps 756 mmHg 87%
02:00 +14°C° 0.2 mm 5 mps 756 mmHg 89%
03:00 +14°C° 0.2 mm 6 mps 755 mmHg 90%
04:00 +14°C° 0.1 mm 6 mps 756 mmHg 91%
05:00 +14°C° 0.1 mm 6 mps 756 mmHg 91%
06:00 +15°C° 0.1 mm 6 mps 756 mmHg 92%
07:00 +15°C° 0 mm 6 mps 756 mmHg 90%
08:00 +15°C° 0 mm 6 mps 756 mmHg 87%
09:00 +16°C° 0 mm 6 mps 757 mmHg 85%
10:00 +16°C° 0 mm 6 mps 757 mmHg 80%
11:00 +17°C° 0 mm 6 mps 757 mmHg 75%
12:00 +17°C° 0 mm 6 mps 758 mmHg 70%
13:00 +19°C° 0 mm 6 mps 758 mmHg 69%
14:00 +19°C° 0 mm 6 mps 758 mmHg 69%
15:00 +19°C° 0 mm 6 mps 759 mmHg 68%
16:00 +19°C° 0 mm 5 mps 759 mmHg 70%
17:00 +17°C° 0 mm 5 mps 759 mmHg 71%
18:00 +18°C° 0 mm 4 mps 760 mmHg 73%
19:00 +17°C° 0 mm 4 mps 760 mmHg 77%
20:00 +16°C° 0 mm 3 mps 761 mmHg 81%
21:00 +15°C° 0 mm 2 mps 761 mmHg 85%
22:00 +15°C° 0 mm 2 mps 762 mmHg 86%
23:00 +14°C° 0 mm 2 mps 762 mmHg 88%

16 July, Thursday

Time Temperature Precipitation Wind Pressure Humidity
00:00 +14°C° 0 mm 2 mps 762 mmHg 89%
01:00 +14°C° 0 mm 2 mps 762 mmHg 89%
02:00 +15°C° 0 mm 2 mps 762 mmHg 89%
03:00 +15°C° 0 mm 2 mps 762 mmHg 89%
04:00 +15°C° 0 mm 2 mps 762 mmHg 89%
05:00 +16°C° 0 mm 2 mps 762 mmHg 89%
06:00 +16°C° 0 mm 3 mps 762 mmHg 89%
07:00 +17°C° 0 mm 3 mps 762 mmHg 85%
08:00 +18°C° 0 mm 3 mps 762 mmHg 80%
09:00 +19°C° 0 mm 4 mps 762 mmHg 76%
10:00 +20°C° 0 mm 4 mps 762 mmHg 75%
11:00 +20°C° 0 mm 4 mps 762 mmHg 75%
12:00 +21°C° 0 mm 4 mps 762 mmHg 74%
13:00 +21°C° 0 mm 4 mps 762 mmHg 73%
14:00 +21°C° 0 mm 4 mps 762 mmHg 73%
15:00 +21°C° 0 mm 3 mps 762 mmHg 72%
16:00 +21°C° 0 mm 4 mps 762 mmHg 73%
17:00 +21°C° 0 mm 4 mps 762 mmHg 74%
18:00 +21°C° 0 mm 4 mps 762 mmHg 75%
19:00 +20°C° 0 mm 3 mps 762 mmHg 78%
20:00 +19°C° 0 mm 2 mps 762 mmHg 81%
21:00 +18°C° 0 mm 2 mps 762 mmHg 84%
22:00 +18°C° 0 mm 2 mps 762 mmHg 85%
23:00 +17°C° 0 mm 2 mps 762 mmHg 86%
Show more